Time,TemperatureF,DewpointF,PressureIn,WindDirection,WindDirectionDegrees,WindSpeedMPH,WindSpeedGustMPH,Humidity,HourlyPrecipIn,Conditions,Clouds,dailyrainin,SoftwareType,DateUTC
2013-07-07 00:09:00,65.8,62.0,30.01,South,169,0.0,1.0,86,0.00,,,0.00,weatherlink.com 1.10,2013-07-07 04:09:00,
2013-07-07 00:24:00,65.2,61.0,30.02,South,169,0.0,0.0,86,0.00,,,0.00,weatherlink.com 1.10,2013-07-07 04:24:00,
2013-07-07 00:39:00,64.7,61.0,30.01,South,169,0.0,0.0,86,0.00,,,0.00,weatherlink.com 1.10,2013-07-07 04:39:00,
2013-07-07 00:54:00,64.3,60.0,30.01,South,169,1.0,1.0,86,0.00,,,0.00,weatherlink.com 1.10,2013-07-07 04:54:00,
2013-07-07 01:09:00,63.5,60.0,30.00,South,169,0.0,0.0,87,0.00,,,0.00,weatherlink.com 1.10,2013-07-07 05:09:00,
2013-07-07 01:24:00,63.3,59.0,30.00,South,169,0.0,2.0,87,0.00,,,0.00,weatherlink.com 1.10,2013-07-07 05:24:00,
2013-07-07 01:39:00,62.9,59.0,30.00,South,169,0.0,2.0,87,0.00,,,0.00,weatherlink.com 1.10,2013-07-07 05:39:00,
2013-07-07 01:54:00,62.5,59.0,30.00,South,169,0.0,1.0,87,0.00,,,0.00,weatherlink.com 1.10,2013-07-07 05:54:00,
2013-07-07 02:09:00,62.5,59.0,30.00,South,169,0.0,0.0,87,0.00,,,0.00,weatherlink.com 1.10,2013-07-07 06:09:00,
2013-07-07 02:24:00,62.5,59.0,30.00,South,169,0.0,1.0,87,0.00,,,0.00,weatherlink.com 1.10,2013-07-07 06:24:00,
2013-07-07 02:39:00,62.3,58.0,30.00,South,169,0.0,1.0,87,0.00,,,0.00,weatherlink.com 1.10,2013-07-07 06:39:00,
2013-07-07 02:54:00,62.3,58.0,30.00,South,169,0.0,1.0,87,0.00,,,0.00,weatherlink.com 1.10,2013-07-07 06:54:00,
2013-07-07 03:09:00,62.0,58.0,29.99,South,169,0.0,1.0,87,0.00,,,0.00,weatherlink.com 1.10,2013-07-07 07:09:00,
2013-07-07 03:24:00,61.6,58.0,29.99,South,169,0.0,1.0,87,0.00,,,0.00,weatherlink.com 1.10,2013-07-07 07:24:00,
2013-07-07 03:39:00,61.6,58.0,29.99,South,169,0.0,0.0,87,0.00,,,0.00,weatherlink.com 1.10,2013-07-07 07:39:00,
2013-07-07 03:54:00,61.2,57.0,29.99,South,169,0.0,1.0,87,0.00,,,0.00,weatherlink.com 1.10,2013-07-07 07:54:00,
2013-07-07 04:09:00,60.9,57.0,29.99,South,169,0.0,0.0,87,0.00,,,0.00,weatherlink.com 1.10,2013-07-07 08:09:00,
2013-07-07 04:24:00,60.2,56.0,29.99,South,169,0.0,0.0,87,0.00,,,0.00,weatherlink.com 1.10,2013-07-07 08:24:00,
2013-07-07 04:39:00,59.9,56.0,29.99,South,169,0.0,1.0,87,0.00,,,0.00,weatherlink.com 1.10,2013-07-07 08:39:00,
2013-07-07 04:54:00,59.7,56.0,29.99,South,169,0.0,0.0,87,0.00,,,0.00,weatherlink.com 1.10,2013-07-07 08:54:00,
2013-07-07 05:10:00,59.4,56.0,29.98,South,169,0.0,0.0,87,0.00,,,0.00,weatherlink.com 1.10,2013-07-07 09:10:00,
2013-07-07 05:24:00,59.2,55.0,29.98,South,169,0.0,1.0,87,0.00,,,0.00,weatherlink.com 1.10,2013-07-07 09:24:00,
2013-07-07 05:39:00,58.6,55.0,29.98,South,169,0.0,0.0,87,0.00,,,0.00,weatherlink.com 1.10,2013-07-07 09:39:00,
2013-07-07 05:54:00,58.5,55.0,29.98,South,169,0.0,0.0,88,0.00,,,0.00,weatherlink.com 1.10,2013-07-07 09:54:00,
2013-07-07 06:09:00,58.1,55.0,29.99,South,169,2.0,2.0,88,0.00,,,0.00,weatherlink.com 1.10,2013-07-07 10:09:00,
2013-07-07 06:24:00,58.8,55.0,29.99,North,360,0.0,2.0,87,0.00,,,0.00,weatherlink.com 1.10,2013-07-07 10:24:00,
2013-07-07 06:39:00,58.6,55.0,29.99,North,360,1.0,2.0,88,0.00,,,0.00,weatherlink.com 1.10,2013-07-07 10:39:00,
2013-07-07 06:54:00,58.7,55.0,29.99,North,360,1.0,1.0,88,0.00,,,0.00,weatherlink.com 1.10,2013-07-07 10:54:00,
2013-07-07 07:09:00,59.0,56.0,29.99,North,360,0.0,2.0,88,0.00,,,0.00,weatherlink.com 1.10,2013-07-07 11:09:00,
2013-07-07 07:24:00,59.7,56.0,29.98,North,360,0.0,2.0,87,0.00,,,0.00,weatherlink.com 1.10,2013-07-07 11:24:00,
2013-07-07 07:39:00,60.8,57.0,29.98,North,360,0.0,3.0,88,0.00,,,0.00,weatherlink.com 1.10,2013-07-07 11:39:00,
2013-07-07 07:54:00,61.9,58.0,29.98,North,360,0.0,1.0,87,0.00,,,0.00,weatherlink.com 1.10,2013-07-07 11:54:00,
2013-07-07 08:10:00,63.8,60.0,29.99,North,360,0.0,2.0,87,0.00,,,0.00,weatherlink.com 1.10,2013-07-07 12:10:00,
2013-07-07 08:25:00,66.5,63.0,29.98,North,360,0.0,1.0,87,0.00,,,0.00,weatherlink.com 1.10,2013-07-07 12:25:00,
2013-07-07 08:40:00,69.6,65.0,29.98,North,360,0.0,1.0,86,0.00,,,0.00,weatherlink.com 1.10,2013-07-07 12:40:00,
2013-07-07 08:55:00,71.9,66.0,29.98,NE,42,0.0,3.0,82,0.00,,,0.00,weatherlink.com 1.10,2013-07-07 12:55:00,
2013-07-07 09:10:00,71.9,65.0,29.98,South,172,4.0,5.0,79,0.00,,,0.00,weatherlink.com 1.10,2013-07-07 13:10:00,
2013-07-07 09:25:00,72.3,67.0,29.98,SE,137,0.0,7.0,82,0.00,,,0.00,weatherlink.com 1.10,2013-07-07 13:25:00,
2013-07-07 09:40:00,72.9,67.0,29.98,SSW,192,1.0,5.0,82,0.00,,,0.00,weatherlink.com 1.10,2013-07-07 13:40:00,
2013-07-07 09:55:00,73.2,67.0,29.98,SSE,168,3.0,6.0,81,0.00,,,0.00,weatherlink.com 1.10,2013-07-07 13:55:00,
2013-07-07 10:10:00,73.3,67.0,29.99,SSW,213,0.0,6.0,81,0.00,,,0.00,weatherlink.com 1.10,2013-07-07 14:10:00,
2013-07-07 10:25:00,73.4,67.0,29.98,South,191,7.0,8.0,81,0.00,,,0.00,weatherlink.com 1.10,2013-07-07 14:25:00,
2013-07-07 10:40:00,72.8,67.0,29.98,SE,138,3.0,7.0,82,0.00,,,0.00,weatherlink.com 1.10,2013-07-07 14:40:00,
2013-07-07 10:55:00,73.7,68.0,29.97,ESE,103,1.0,9.0,82,0.00,,,0.00,weatherlink.com 1.10,2013-07-07 14:55:00,
2013-07-07 11:10:00,73.8,67.0,29.97,SSE,159,3.0,8.0,80,0.00,,,0.00,weatherlink.com 1.10,2013-07-07 15:10:00,
2013-07-07 11:25:00,73.3,67.0,29.97,SSE,148,6.0,10.0,81,0.00,,,0.00,weatherlink.com 1.10,2013-07-07 15:25:00,
2013-07-07 11:40:00,74.5,68.0,29.96,SSW,212,4.0,7.0,79,0.00,,,0.00,weatherlink.com 1.10,2013-07-07 15:40:00,
2013-07-07 11:55:00,74.5,68.0,29.96,SE,134,3.0,8.0,80,0.00,,,0.00,weatherlink.com 1.10,2013-07-07 15:55:00,
2013-07-07 12:10:00,74.3,67.0,29.96,SE,134,6.0,10.0,78,0.00,,,0.00,weatherlink.com 1.10,2013-07-07 16:10:00,
2013-07-07 12:25:00,75.3,68.0,29.96,SE,126,3.0,8.0,77,0.00,,,0.00,weatherlink.com 1.10,2013-07-07 16:25:00,
2013-07-07 12:40:00,74.1,68.0,29.96,South,188,0.0,9.0,81,0.00,,,0.00,weatherlink.com 1.10,2013-07-07 16:40:00,
2013-07-07 12:55:00,75.8,69.0,29.96,SE,146,2.0,6.0,79,0.00,,,0.00,weatherlink.com 1.10,2013-07-07 16:55:00,
2013-07-07 13:10:00,76.5,68.0,29.95,SSE,162,0.0,6.0,76,0.00,,,0.00,weatherlink.com 1.10,2013-07-07 17:10:00,
2013-07-07 13:25:00,76.1,68.0,29.95,SW,229,0.0,6.0,75,0.00,,,0.00,weatherlink.com 1.10,2013-07-07 17:25:00,
2013-07-07 13:40:00,75.9,68.0,29.95,South,188,2.0,6.0,76,0.00,,,0.00,weatherlink.com 1.10,2013-07-07 17:40:00,
2013-07-07 13:55:00,76.3,68.0,29.95,SW,227,3.0,7.0,75,0.00,,,0.00,weatherlink.com 1.10,2013-07-07 17:55:00,
2013-07-07 14:10:00,76.6,68.0,29.95,WSW,241,3.0,6.0,75,0.00,,,0.00,weatherlink.com 1.10,2013-07-07 18:10:00,
2013-07-07 14:25:00,76.3,69.0,29.95,SW,234,2.0,7.0,77,0.00,,,0.00,weatherlink.com 1.10,2013-07-07 18:25:00,
2013-07-07 14:40:00,75.9,68.0,29.95,WSW,238,0.0,6.0,76,0.00,,,0.00,weatherlink.com 1.10,2013-07-07 18:40:00,
2013-07-07 14:55:00,76.4,68.0,29.95,SW,223,6.0,7.0,76,0.00,,,0.00,weatherlink.com 1.10,2013-07-07 18:55:00,
2013-07-07 15:10:00,76.2,69.0,29.95,SSW,207,5.0,7.0,78,0.00,,,0.00,weatherlink.com 1.10,2013-07-07 19:10:00,
2013-07-07 15:25:00,76.0,69.0,29.95,South,185,0.0,5.0,78,0.00,,,0.00,weatherlink.com 1.10,2013-07-07 19:25:00,
2013-07-07 15:40:00,76.2,69.0,29.94,WSW,242,2.0,5.0,78,0.00,,,0.00,weatherlink.com 1.10,2013-07-07 19:40:00,
2013-07-07 15:55:00,76.0,69.0,29.95,WSW,244,5.0,6.0,78,0.00,,,0.00,weatherlink.com 1.10,2013-07-07 19:55:00,
2013-07-07 16:10:00,75.0,69.0,29.95,West,265,2.0,7.0,82,0.00,,,0.00,weatherlink.com 1.10,2013-07-07 20:10:00,
2013-07-07 16:25:00,74.7,69.0,29.95,West,261,3.0,6.0,83,0.00,,,0.00,weatherlink.com 1.10,2013-07-07 20:25:00,
2013-07-07 16:40:00,73.7,69.0,29.95,West,262,6.0,7.0,84,0.01,,,0.01,weatherlink.com 1.10,2013-07-07 20:40:00,
2013-07-07 16:55:00,72.9,68.0,29.96,WNW,286,7.0,9.0,85,0.01,,,0.01,weatherlink.com 1.10,2013-07-07 20:55:00,
2013-07-07 17:10:00,73.2,69.0,29.95,West,268,4.0,7.0,85,0.02,,,0.02,weatherlink.com 1.10,2013-07-07 21:10:00,
2013-07-07 17:25:00,73.9,69.0,29.95,WNW,292,2.0,5.0,85,0.02,,,0.02,weatherlink.com 1.10,2013-07-07 21:25:00,
2013-07-07 17:40:00,74.6,70.0,29.95,WNW,303,0.0,4.0,84,0.01,,,0.02,weatherlink.com 1.10,2013-07-07 21:40:00,
2013-07-07 17:55:00,74.6,70.0,29.95,NW,311,2.0,5.0,84,0.01,,,0.02,weatherlink.com 1.10,2013-07-07 21:55:00,
2013-07-07 18:10:00,74.4,70.0,29.94,NW,311,2.0,4.0,85,0.00,,,0.02,weatherlink.com 1.10,2013-07-07 22:10:00,
2013-07-07 18:25:00,74.5,70.0,29.95,NW,311,2.0,4.0,85,0.00,,,0.02,weatherlink.com 1.10,2013-07-07 22:25:00,
2013-07-07 18:40:00,74.8,70.0,29.94,NW,311,0.0,4.0,85,0.00,,,0.02,weatherlink.com 1.10,2013-07-07 22:40:00,
2013-07-07 18:55:00,75.4,71.0,29.95,NW,311,1.0,3.0,85,0.00,,,0.02,weatherlink.com 1.10,2013-07-07 22:55:00,
2013-07-07 19:11:00,76.0,71.0,29.95,NW,317,0.0,4.0,84,0.00,,,0.02,weatherlink.com 1.10,2013-07-07 23:11:00,
2013-07-07 19:25:00,74.8,70.0,29.95,West,266,0.0,6.0,85,0.00,,,0.02,weatherlink.com 1.10,2013-07-07 23:25:00,
2013-07-07 19:40:00,74.5,70.0,29.95,West,266,0.0,2.0,85,0.00,,,0.02,weatherlink.com 1.10,2013-07-07 23:40:00,
2013-07-07 19:55:00,74.7,70.0,29.95,West,266,0.0,4.0,85,0.00,,,0.02,weatherlink.com 1.10,2013-07-07 23:55:00,
2013-07-07 20:10:00,74.0,69.0,29.95,WSW,247,2.0,4.0,85,0.00,,,0.02,weatherlink.com 1.10,2013-07-08 00:10:00,
2013-07-07 20:25:00,73.8,69.0,29.95,WSW,247,0.0,1.0,85,0.00,,,0.02,weatherlink.com 1.10,2013-07-08 00:25:00,
2013-07-07 20:40:00,73.5,68.0,29.96,WSW,247,0.0,3.0,84,0.00,,,0.02,weatherlink.com 1.10,2013-07-08 00:40:00,
2013-07-07 20:55:00,72.8,68.0,29.96,SW,217,1.0,4.0,85,0.04,,,0.06,weatherlink.com 1.10,2013-07-08 00:55:00,
2013-07-07 21:10:00,71.8,68.0,29.96,SW,215,0.0,3.0,86,0.08,,,0.10,weatherlink.com 1.10,2013-07-08 01:10:00,
2013-07-07 21:25:00,71.4,67.0,29.96,SW,215,0.0,1.0,86,0.08,,,0.10,weatherlink.com 1.10,2013-07-08 01:25:00,
2013-07-07 21:40:00,70.9,67.0,29.97,SW,215,0.0,0.0,86,0.08,,,0.10,weatherlink.com 1.10,2013-07-08 01:40:00,
2013-07-07 21:55:00,70.4,66.0,29.97,SW,215,0.0,0.0,86,0.04,,,0.10,weatherlink.com 1.10,2013-07-08 01:55:00,
2013-07-07 22:10:00,70.1,66.0,29.98,SW,215,0.0,0.0,86,0.00,,,0.10,weatherlink.com 1.10,2013-07-08 02:10:00,
2013-07-07 22:26:00,69.7,66.0,29.98,SW,215,0.0,0.0,87,0.00,,,0.10,weatherlink.com 1.10,2013-07-08 02:26:00,
2013-07-07 22:41:00,69.2,65.0,29.98,SW,215,0.0,0.0,86,0.00,,,0.10,weatherlink.com 1.10,2013-07-08 02:41:00,
2013-07-07 22:56:00,68.8,65.0,29.98,SW,215,0.0,0.0,87,0.00,,,0.10,weatherlink.com 1.10,2013-07-08 02:56:00,
2013-07-07 23:11:00,68.3,64.0,29.99,SW,215,0.0,0.0,87,0.00,,,0.10,weatherlink.com 1.10,2013-07-08 03:11:00,
2013-07-07 23:26:00,68.0,64.0,29.99,SW,215,0.0,0.0,87,0.00,,,0.10,weatherlink.com 1.10,2013-07-08 03:26:00,
2013-07-07 23:41:00,67.8,64.0,30.00,SW,215,0.0,1.0,87,0.00,,,0.10,weatherlink.com 1.10,2013-07-08 03:41:00,
2013-07-07 23:56:00,67.8,64.0,30.00,NW,312,0.0,2.0,87,0.01,,,0.11,weatherlink.com 1.10,2013-07-08 03:56:00,